SCP
0 0 0 0 1 1 1 1 1 1 1 2 2 2 1 1 1 1 1 1 1 0 0 0 0 0 0 0 0 0 0 0 0 0 0 0 0 0 0 0 0 0 0
0 0 0 0 0 0 1 1 1 1 1 1 1 1 1 1 1 1 1 1 1 0 0 0 0 0 0 0 0 0 0 0 0 0 0 0 0 0 0 0 0 0 0
0 0 0 0 0 0 0 0 1 1 1 1 1 1 1 1 1 1 1 1 1 0 0 0 0 0 0 0 0 0 0 0 0 0 0 0 0 0 0 0 0 0 0
0 0 0 0 0 0 0 0 0 0 0 1 1 1 1 1 1 1 1 1 0 0 0 0 0 0 0 0 0 0 0 0 0 0 0 0 0 0 0 0 0 0 0
0 0 0 0 0 0 0 0 0 0 0 0 0 0 0 0 0 0 1 0 0 0 0 0 0 0 0 0 0 0 0 0 0 0 0 0 0 0 0 0 0 0 0
0 0 0 0 0 0 0 0 0 0 0 0 0 0 0 0 0 0 0 0 0 0 0 0 0 0 0 0 0 0 0 0 0 0 0 0 0 0 0 0 0 0 0
0 0 0 0 0 0 0 0 0 0 0 0 0 0 0 0 0 0 0 0 0 0 0 0 0 0 0 0 0 0 0 0 0 0 0 0 0 0 0 0 0 0 0
0 0 0 0 0 0 0 0 0 0 0 0 0 0 0 0 0 0 0 0 0 0 0 0 0 0 0 0 0 0 0 0 0 0 0 0 0 0 0 0 0 0 0
0 0 0 0 0 0 0 0 0 0 0 0 0 0 0 0 0 0 0 0 0 0 0 0 0 0 0 0 0 0 0 0 0 0 0 0 0 0 0 0 0 0 0
0 0 0 0 0 0 0 0 0 0 0 0 0 0 0 0 0 0 0 0 0 0 0 0 0 0 0 0 0 0 0 0 0 0 0 0 0 0 0 0 0 0 0
0 0 0 0 0 0 0 0 0 0 0 0 0 0 0 0 0 0 0 0 0 0 0 0 0 0 0 0 0 0 0 0 0 0 0 0 0 0 0 0 0 0 0
0 0 0 0 0 0 0 0 0 0 0 0 0 0 0 0 0 0 0 0 0 0 0 0 0 0 0 0 0 0 0 0 0 0 0 0 0 0 0 0 0 0 0
0 0 0 0 0 0 0 0 0 0 0 0 0 0 0 0 0 0 0 0 0 0 0 0 0 0 0 0 0 0 0 0 0 0 0 0 0 0 0 0 0 0 0
0 0 0 0 0 0 0 0 0 0 0 0 0 0 0 0 0 0 0 0 0 0 0 0 0 0 0 0 0 0 0 0 0 0 0 0 0 0 0 0 0 0 0
0 0 0 0 0 0 0 0 0 0 0 0 0 0 0 0 0 0 0 0 0 0 0 0 0 0 0 0 0 0 0 0 0 0 0 0 0 0 0 0 0 0 0
0 0 0 0 0 0 0 0 0 0 0 0 0 0 0 0 0 0 0 0 0 0 0 0 0 0 0 0 0 0 0 0 0 0 0 0 0 0 0 0 0 0 0
0 0 0 0 0 0 0 0 0 0 0 0 0 0 0 0 0 0 0 -0 -0 0 0 0 0 0 0 0 0 0 0 0 0 0 0 0 0 0 0 0 0 0 0
0 0 0 0 0 0 0 0 0 0 0 0 0 0 0 0 0 0 0 0 0 0 0 0 0 0 0 0 0 0 0 0 0 0 0 0 0 0 0 0 0 0 0
0 0 0 0 0 0 0 0 0 0 0 0 0 0 0 0 0 0 0 0 0 0 0 0 0 0 0 0 0 0 0 0 0 0 0 0 0 0 0 0 0 0 0
0 0 0 0 0 0 0 0 0 0 0 0 0 0 0 0 0 0 0 0 0 0 0 0 0 0 0 0 0 0 0 0 0 0 0 0 0 0 0 0 0 0 0
0 0 0 0 0 0 0 0 0 0 0 0 0 0 0 0 0 0 0 0 0 0 0 0 0 0 0 0 0 0 0 0 0 0 0 0 0 0 0 0 0 0 0
0 0 0 0 0 0 0 0 0 0 0 0 0 0 0 0 0 0 0 0 0 0 0 0 0 0 0 0 0 0 0 0 0 0 0 0 0 0 0 0 0 0 0
0 0 0 0 0 0 0 0 0 0 0 0 0 0 0 0 0 0 0 0 0 0 0 0 0 0 0 0 0 0 0 0 0 0 0 0 0 0 0 0 0 0 0
0 0 0 0 0 0 0 0 0 0 0 0 0 0 0 0 0 0 0 0 0 0 0 0 0 0 0 0 0 0 0 0 0 0 0 0 0 0 0 0 0 0 0
0 0 0 0 0 0 0 0 0 0 0 0 0 0 0 0 0 0 0 0 0 0 0 0 0 0 0 0 0 0 0 0 0 0 0 0 0 0 0 0 0 0 0
0 0 0 0 0 0 0 0 0 0 0 0 0 0 0 0 0 0 0 0 0 0 0 0 0 0 0 0 0 0 0 0 0 0 0 0 0 0 0 0 0 0 0
Wind_Speed
6 6 6 7 7 7 6 6 6 7 8 7 7 7 8 8 7 6 7 7 6 5 5 6 5 6 5 5 5 5 5 5 6 3 1 2 3 4 5 6 7 7 7
7 7 7 7 7 7 8 7 6 7 7 8 8 8 9 9 8 7 8 7 5 5 5 5 5 5 6 5 5 6 5 5 5 4 2 2 3 5 7 7 6 7 7
8 8 7 7 8 8 8 8 8 7 7 8 8 8 9 9 8 8 8 7 6 5 5 4 4 5 5 4 5 4 4 4 3 4 3 2 3 4 7 7 8 7 8
8 8 8 8 8 8 9 8 8 8 8 8 8 8 9 10 9 8 8 7 6 5 4 3 3 4 4 4 4 3 2 2 3 4 5 4 3 5 6 7 7 5 7
8 9 8 8 8 8 8 8 8 8 10 8 8 8 9 10 9 8 7 8 6 5 4 2 2 1 2 3 3 2 1 3 3 5 5 4 4 5 5 5 7 6 6
9 9 9 9 9 9 9 9 8 8 8 7 7 9 10 10 9 9 8 7 5 5 4 3 3 2 1 0 0 0 2 4 4 5 5 7 6 6 5 7 7 7 5
9 10 10 9 10 9 10 9 8 8 8 8 8 9 9 9 10 10 9 7 6 5 4 4 4 3 3 3 4 4 4 3 4 4 6 6 7 7 7 7 6 6 5
10 10 10 10 10 9 8 9 8 8 8 8 8 9 9 10 9 9 9 8 6 5 5 4 3 4 3 4 4 5 4 4 4 4 5 5 6 6 6 7 7 6 5
12 10 10 10 10 10 9 9 8 8 8 9 9 9 9 8 8 8 8 6 6 6 5 5 5 5 5 6 6 6 6 5 8 10 10 9 11 10 7 6 6 6 5
12 11 11 10 10 11 10 9 9 8 9 10 10 9 9 8 6 7 8 5 6 5 4 4 6 7 7 6 6 7 7 6 7 8 8 9 9 9 8 5 5 5 5
12 11 11 10 10 11 10 9 8 9 10 10 10 9 9 8 7 8 9 5 5 5 5 5 6 11 10 7 6 6 8 8 7 7 6 6 5 5 5 4 3 4 5
12 13 12 11 13 13 9 8 8 9 10 10 9 9 8 5 6 7 9 9 6 4 3 4 8 13 11 9 6 9 11 9 6 5 5 5 5 5 6 6 6 7 7
13 13 12 13 11 11 10 10 10 8 8 9 7 7 6 4 3 7 9 8 6 4 2 5 12 14 12 8 10 12 9 5 5 5 5 5 5 7 6 5 6 7 7
14 13 11 11 12 11 8 9 8 8 8 7 6 5 5 3 2 3 3 4 4 3 3 7 13 13 9 10 9 7 5 4 4 5 6 6 6 5 5 4 5 5 5
14 13 12 10 10 9 9 8 9 8 7 6 5 4 3 2 2 4 4 3 3 4 5 6 6 7 7 7 6 5 4 4 5 6 7 6 5 5 4 4 4 5 5
11 11 9 8 8 8 8 9 10 11 10 10 8 7 3 3 6 7 6 5 5 7 7 7 7 8 8 8 7 6 5 5 5 7 6 6 5 5 5 4 4 5 5
11 10 8 8 8 7 7 7 7 7 9 10 10 9 7 6 8 8 8 7 6 8 6 6 6 7 7 8 7 6 6 5 6 6 6 6 5 5 5 4 4 4 5
11 11 10 7 7 7 7 7 6 7 6 5 6 8 8 10 9 9 9 7 4 6 7 6 6 6 6 7 7 6 6 6 6 6 6 5 5 5 5 4 4 5 5
10 7 7 6 6 7 7 6 6 7 6 5 3 3 7 8 8 9 10 6 7 8 8 7 6 6 6 6 6 6 6 6 6 5 5 5 5 5 5 4 5 6 5
7 11 10 7 6 6 6 6 6 6 6 5 4 3 6 6 5 7 7 7 8 8 7 7 6 6 6 6 6 6 7 7 6 5 5 5 5 5 5 6 6 5 4
7 7 11 8 6 6 6 6 5 5 5 4 3 5 8 7 7 9 9 8 8 8 7 7 6 7 6 5 6 7 9 8 6 5 6 5 5 5 4 5 5 5 4
6 6 5 5 5 5 5 5 5 5 5 4 3 5 9 7 7 8 8 7 7 7 6 6 6 6 6 6 6 7 7 8 7 6 6 6 5 5 5 5 5 5 5
6 6 5 4 4 5 5 4 4 4 3 4 4 5 6 6 7 8 9 8 7 6 6 5 5 5 5 5 5 6 7 7 7 7 6 6 5 5 4 5 5 5 5
5 5 4 4 3 3 3 2 2 2 2 4 4 5 6 6 7 8 8 8 7 6 5 5 5 7 8 6 5 6 6 6 7 7 8 7 6 5 4 4 5 5 5
5 3 3 3 3 2 2 2 2 2 3 4 4 6 6 7 7 8 8 7 8 6 7 6 5 6 9 9 7 6 8 9 7 6 6 5 6 5 5 5 4 4 5
4 3 3 2 2 1 1 1 2 3 4 4 5 6 7 7 8 9 8 7 7 6 7 6 7 7 9 8 9 10 10 10 8 6 4 4 4 4 4 3 4 4 4
Wind_Direction
327 326 324 320 321 318 311 312 312 308 303 296 289 284 277 269 258 249 252 258 260 267 275 277 279 281 279 275 269 263 248 236 246 253 207 159 144 137 125 114 124 119 116
315 313 310 310 311 310 306 300 299 299 300 298 292 285 278 273 261 254 255 260 262 268 275 282 289 290 283 277 268 262 253 237 224 219 192 164 148 141 136 133 129 121 117
304 301 301 301 301 298 296 295 294 290 291 295 294 289 283 278 268 257 251 254 256 263 270 280 291 294 290 286 278 268 254 235 202 182 176 159 142 137 133 126 118 115 118
291 291 288 285 281 281 284 284 283 284 284 284 288 290 286 280 272 262 255 246 245 250 256 271 290 295 291 291 285 270 234 197 177 164 158 148 132 130 131 129 122 123 124
290 288 284 283 283 281 280 279 278 279 284 286 291 289 286 280 270 265 260 251 237 239 241 241 262 289 311 295 287 276 192 162 156 150 147 140 137 140 139 136 130 124 112
288 287 285 282 280 278 279 279 279 278 280 283 286 286 284 283 285 274 258 259 242 228 226 219 199 191 164 108 45 215 178 163 155 151 152 150 146 139 137 140 135 133 128
290 290 288 287 288 285 286 287 287 288 287 286 286 284 281 279 274 262 253 257 247 227 213 212 217 176 171 141 112 100 85 107 140 145 144 143 144 148 144 136 138 139 134
290 289 288 287 286 284 284 285 283 284 286 285 283 283 281 279 272 253 249 252 243 227 209 198 182 164 173 156 137 114 95 84 115 130 129 126 131 138 137 135 133 117 104
291 289 290 288 289 288 286 284 285 284 284 281 279 275 276 276 262 243 237 248 237 227 212 187 167 156 154 158 142 128 115 98 87 96 102 107 109 110 115 122 126 129 128
291 288 287 283 283 285 283 281 283 283 280 279 276 274 274 272 254 233 219 239 236 222 205 170 164 152 152 157 150 139 131 122 114 107 103 108 112 111 113 124 137 141 136
291 289 285 281 280 278 273 271 274 277 277 276 276 275 269 262 241 216 208 221 236 220 200 175 155 148 148 144 140 136 135 131 126 123 121 118 115 111 104 95 98 133 132
292 289 286 285 284 284 279 278 275 273 275 272 269 270 266 254 230 207 202 212 231 245 222 175 153 153 150 146 135 136 139 138 134 131 126 125 121 109 98 90 84 85 92
292 290 288 287 282 279 277 277 275 269 267 269 267 268 268 252 206 191 195 209 229 240 252 155 149 153 148 143 143 147 152 149 139 137 129 120 109 107 105 99 92 87 84
292 290 287 284 281 277 271 269 268 266 266 268 266 266 273 257 197 170 178 189 185 187 167 141 144 153 150 139 146 158 171 160 142 129 116 109 109 115 118 120 114 108 98
294 289 286 280 277 275 272 267 265 260 257 261 269 267 266 252 200 173 164 172 164 155 140 143 153 159 154 148 156 165 165 157 141 126 124 129 135 138 141 145 139 135 128
293 288 284 281 276 272 273 277 265 257 261 256 247 251 255 189 161 164 166 169 161 147 150 159 164 164 160 158 162 162 164 157 140 134 138 142 146 149 149 151 151 146 142
290 287 282 278 276 275 273 271 275 274 260 250 243 237 227 183 166 165 164 163 168 159 169 176 175 172 166 161 162 162 163 152 143 145 149 154 155 153 154 156 154 144 138
289 285 282 273 271 269 266 265 266 267 268 260 239 224 207 189 179 170 160 150 164 184 193 188 186 180 173 161 163 164 158 150 150 151 152 154 152 149 152 155 147 141 137
291 285 280 276 269 264 261 260 259 262 261 259 250 195 185 176 169 166 162 177 182 190 197 194 191 179 175 162 158 157 151 147 151 149 148 151 152 151 153 153 139 141 142
289 285 281 275 266 261 257 253 251 252 251 245 232 180 158 165 171 168 182 192 190 192 193 190 187 179 170 164 157 155 151 148 153 155 150 154 153 155 156 152 148 153 161
290 283 278 273 259 254 255 253 250 250 244 237 212 178 174 180 180 174 181 192 192 192 189 187 184 176 164 165 161 159 155 154 159 165 157 158 162 158 155 153 155 160 157
293 280 272 266 258 253 252 248 245 244 241 227 187 170 176 178 174 172 181 190 192 195 191 184 183 168 165 173 162 159 159 159 163 168 161 161 165 162 162 161 162 164 162
296 290 279 266 259 250 251 246 239 232 219 192 177 169 175 177 173 176 183 188 192 196 189 181 181 170 165 166 163 165 166 162 163 165 163 164 167 167 167 166 168 167 167
302 293 286 278 266 255 250 250 240 217 193 176 171 172 174 173 176 179 182 186 190 189 177 180 186 178 168 168 167 169 165 159 162 165 167 168 169 169 169 170 174 173 163
309 304 295 288 277 262 246 241 234 217 197 185 176 171 170 171 176 180 182 185 187 182 176 176 181 178 174 181 174 163 147 143 149 156 162 168 173 174 174 175 177 173 170
322 317 307 302 305 291 257 229 216 193 179 178 169 165 167 170 174 176 177 178 177 175 174 177 177 175 174 179 165 138 132 133 131 134 153 168 172 175 174 177 184 183 180